Regional Weather Roundup
Issued by NWS Goodland, KS

Home | Current Version | Previous Version | Graphics & Text | Print | Product List | Glossary On
Versions: 1 2 3 4 5 6 7 8 9 10 11 12 13 14 15 16 17 18 19 20 21 22 23 24 25 26 27 28 29 30 31 32 33 34 35 36 37 38 39 40 41 42 43 44 45 46 47 48 49 50
000
ASUS43 KGLD 281608
RWRGLD

GOODLAND FORECAST AREA HOURLY WEATHER ROUNDUP
NATIONAL WEATHER SERVICE GOODLAND KS
1000 AM MDT THU JUL 28 2016

...OFFICIAL OBSERVATIONS...

CITY           SKY/WX    TMP DP  RH WIND       PRES   REMARKS
GOODLAND KS    TSTM      64  61  90 NE20G33   30.13R
HILL CITY KS   SUNNY     80  66  62 E9        30.04F
IMPERIAL NEB   CLOUDY    68  63  84 NE13      30.14R
MCCOOK NEB     PTSUNNY   75  62  64 NE10      30.09F
AKRON CO       SUNNY     70  54  56 E12       30.18F
BURLINGTON CO  SUNNY     81  57  43 VRB6      30.15R
LIMON CO       SUNNY     74  57  55 SW15G25   30.20R
$$

...UNOFFICIAL OBSERVATIONS...

CITY           SKY/WX    TMP DP  RH WIND       PRES   REMARKS
COLBY KS       SUNNY     75  64  69 N15       30.13R
LENORA KS        N/A     78  32  18 MISG        N/A
NORTON KS      SUNNY     79  61  53 NE12G17   30.07S
SHARON SPRINGS   N/A     82  62  50 S20G29      N/A
KIT CARSON CO    N/A     77  57  50 MISG        N/A
YUMA CO          N/A     67  60  79 E13         N/A
$$




USA.gov is the U.S. government's official web portal to all federal, state and local government web resources and services.